Weather Roundup
Issued by NWS Springfield, MO

Home | Current Version | Previous Version | Text Only | Print | Product List | Glossary On
Versions: 1 2 3 4 5 6 7 8 9 10 11 12 13 14 15 16 17 18 19 20 21 22 23 24 25 26 27 28 29 30 31 32 33 34 35 36 37 38 39 40 41 42 43 44 45 46 47 48 49 50
000
NZUS99 KSGF 280059
HRRSGF

HOURLY WEATHER
NATIONAL WEATHER SERVICE SPRINGFIELD MO
700 PM CST FRI FEB 27 2015

......SGF CWA......

CITY           SKY/WX    TMP DP  RH WIND       PRES   REMARKS
SPRINGFIELD    CLOUDY    22   3  44 SE6       30.49R WCI  14
JOPLIN         FLURRIES  20   8  60 SE6       30.53R WCI  12
WEST PLAINS    CLOUDY    21   2  43 E3        30.52S
ROLLA          MOCLDY    20   2  45 E6        30.53R WCI  12
OSAGE BEACH    CLOUDY    19   0  42 E3        30.56R
BRANSON        LGT SNOW  18  14  86 CALM      30.51S

......SURROUNDING SGF CWA......

CITY           SKY/WX    TMP DP  RH WIND       PRES   REMARKS
CHANUTE        FLURRIES  18  11  74 E5        30.53S WCI  11
PARSONS        CLOUDY    20   6  55 NE5       30.54S WCI  13
COFFEYVILLE    FLURRIES  19  11  70 E5        30.54F WCI  12
EMPORIA        LGT SNOW  16   9  74 S7        30.51R WCI   6
ROGERS AR      LGT SNOW  18  14  86 NE6       30.49R FOG     WCI   9
SILOAM SPRINGS CLOUDY    18  10  73 NE5       30.50R WCI  11
HARRISON AR    LGT SNOW  17  14  88 E8        30.48F FOG     WCI   7
NEAR YELLVILLE PTCLDY    19  12  73 E3        30.54F

......KANSAS AND MISSOURI......

CITY           SKY/WX    TMP DP  RH WIND       PRES   REMARKS
KANSAS CTY INT CLOUDY    16   0  49 SE3       30.55R
DOWNTOWN KC    MOCLDY    19   2  47 NE8       30.57S WCI   9
COLUMBIA       CLOUDY    16   4  59 E10       30.58R WCI   4
SEDALIA        CLOUDY    20   3  48 E6        30.58R WCI  12
ST JOSEPH      CLOUDY    19   2  47 S6        30.57R WCI  11
ST LOUIS       MOCLDY    16  -2  45 NE7       30.64R WCI   6
SPIRIT OF STL  PTCLDY    16   0  49 NE8       30.64R WCI   5
KIRKSVILLE     MOCLDY    12   3  67 E7        30.59R WCI   1
WICHITA        CLOUDY    16   9  74 SE7       30.47F WCI   6
TOPEKA         CLOUDY    19   0  43 E3        30.55S
OLATHE         CLOUDY    18   1  47 E5        30.53R WCI  11

......TENNESSEE......

CITY           SKY/WX    TMP DP  RH WIND       PRES   REMARKS
MEMPHIS        CLOUDY    29  14  53 NE13      30.55F WCI  19
NASHVILLE      CLOUDY    28  10  46 N10       30.57R WCI  19

......ARKANSAS.......

CITY           SKY/WX    TMP DP  RH WIND       PRES   REMARKS
FAYETTEVILLE   LGT SNOW  19  16  88 N3        30.48S FOG
FT SMITH       LGT SNOW  23  17  78 NE7       30.53R WCI  15
LITTLE ROCK    CLOUDY    28   7  41 E13G21    30.55S WCI  17

......OKLAHOMA.......

CITY           SKY/WX    TMP DP  RH WIND       PRES   REMARKS
TULSA          LGT SNOW  18  15  88 NE7       30.54R FOG     WCI   9
PONCA CITY     CLOUDY    17  11  77 E5        30.50F WCI  10
MCALESTER      FLURRIES  21  16  81 NE8       30.49F WCI  11
OKLAHOMA CITY  CLOUDY    19  11  70 E8        30.45R WCI   9

......IOWA............

CITY           SKY/WX    TMP DP  RH WIND       PRES   REMARKS
DES MOINES     FAIR      11  -3  53 S5        30.58R WCI   3
QUAD CITIES    PTCLDY     2  -9  60 CALM      30.64R

......ILLINOIS........

CITY           SKY/WX    TMP DP  RH WIND       PRES   REMARKS
QUINCY         PTCLDY     9  -3  58 NE3       30.63R
CHICAGO        PTCLDY     8  -5  55 SW8       30.63R WCI  -4




USA.gov is the U.S. government's official web portal to all federal, state and local government web resources and services.